Regional Weather Roundup
Issued by NWS

Home | Current Version | Previous Version | Graphics & Text | Print | Product List | Glossary On
Versions: 1 2 3 4 5 6 7 8 9 10 11 12 13 14 15 16 17 18 19 20 21 22 23 24 25 26 27 28 29 30 31 32 33 34 35 36 37 38 39 40 41 42 43 44 45 46 47 48 49 50
000
ASUS45 KCYS 211410
RWRWY

WYOMING REGIONAL WEATHER ROUNDUP
NATIONAL WEATHER SERVICE CHEYENNE WY
700 AM MST FRI NOV 21 2014

NOTE:  "FAIR" INDICATES FEW OR NO CLOUDS BELOW 12,000 FEET
WITH NO SIGNIFICANT WEATHER AND/OR OBSTRUCTIONS TO VISIBILITY.

WYZ001-211500-
YELLOWSTONE NATIONAL PARK

CITY           SKY/WX    TMP DP  RH WIND       PRES   REMARKS
LK YELLOWSTONE   N/A     26  21  81 W10       30.00R WCI  16
W YELLOWSTONE  NOT AVBL

$$
WYZ002>013-054>058-071-098>099-211500-
NORTHERN WYOMING

CITY           SKY/WX    TMP DP  RH WIND       PRES   REMARKS
JACKSON        CLOUDY    12  12 100 N9        30.02S WCI   0
CODY           PTCLDY    43  21  42 W12G26    29.87S
GREYBULL       PTCLDY     2   0  91 NE3       29.94R
WORLAND        PTCLDY     7   3  84 CALM      29.92R
SHERIDAN       PTCLDY    26  18  71 S6        29.83S WCI  19
BUFFALO        PTCLDY    32  18  56 W8        29.85R WCI  25
GILLETTE       PTCLDY    16  13  88 S6        29.84R WCI   7
HULETT         FAIR      28  21  74 S6        29.84R WCI  22
NEWCASTLE      FAIR      23  19  86 CALM      29.87S

$$
WYZ014>020-022>026-101>103-211500-
CENTRAL WYOMING

CITY           SKY/WX    TMP DP  RH WIND       PRES   REMARKS
BIG PINEY      PTCLDY     8   5  87 CALM      30.03S
PINEDALE       MOSUNNY    9   9 100 NW8       30.03R WCI  -4
DUBOIS         FAIR      23  18  80 NW13      29.95S WCI  11
LANDER         NOT AVBL
RIVERTON       PTCLDY    18  12  77 S3        29.94R
CASPER         PTCLDY    31  18  58 SW13      29.92S WCI  21
DOUGLAS        MOCLDY    38  19  46 W5        29.91R WCI  34

$$
WYZ021-027>030-104>119-211500-
SOUTHERN WYOMING

CITY           SKY/WX    TMP DP  RH WIND       PRES   REMARKS
EVANSTON       PTCLDY    22  11  62 S8        30.03S WCI  12
FORT BRIDGER   FAIR      26  18  72 SW9       30.06S WCI  16
ROCK SPRINGS   PTCLDY    24  13  62 SW13      30.04R WCI  12
DIXON          FAIR      18  15  86 CALM      30.08R
RAWLINS        PTCLDY    28  14  55 W8        30.00R WCI  20
SARATOGA       FAIR      21  14  73 CALM      30.02R
LARAMIE        CLOUDY    32  16  51 SW16      29.96S WCI  21
CHEYENNE       CLOUDY    38  18  44 W9        29.94R WCI  31
TORRINGTON     CLOUDY    27  21  78 NE5       29.91R WCI  22
PINE BLUFFS    CLOUDY    36  21  55 S3        29.94R

$$



USA.gov is the U.S. government's official web portal to all federal, state and local government web resources and services.